Location: Unspecified
(33.6682°S, 0.0000°E)
Time: 21:03:18
(UTC+00:00)

Tiros 1 despin weight - Pass Details

Date: 20 June 2019
Orbit: 594 x 642 km, 48.2° (Epoch: 16 July)

Event Time Altitude Azimuth Distance (km) Brightness Sun altitude
Rises 12:58:27 0° 265° (W) 2,942 ? 31.3°
Reaches altitude 10° 13:01:18 10° 248° (WSW) 2,043 ? 31.2°
Maximum altitude 13:04:50 21° 199° (SSW) 1,476 ? 30.9°
Drops below altitude 10° 13:08:24 10° 151° (SSE) 2,059 ? 30.7°
Sets 13:11:17 0° 134° (SE) 2,972 ? 30.5°
